Home   Weather   Banjul   Past weeks

Flag for Gambia Past Weather in Banjul, Gambia — Yesterday and Last 2 Weeks

Now
91 °F

Sunny.


Feels Like: 91 °F
Forecast: 70 / 83 °F
Wind: 3 mph from North

Location: Banjul / Yundum

Current Time: Apr 24, 2017 at 1:39:56 pm

Latest Report: Apr 24, 2017 at 1:00 pm


Visibility: 10 mi

Pressure: 29.89 "Hg

Humidity: 34%

Dew Point: 59 °F

Location of BanjulLocation

Past Weather in Banjul — Graph

°F

Banjul Temperature Yesterday

Maximum temperature yesterday: 88 °F (at 1:00 pm)
Minimum temperature yesterday: 66 °F (at 7:00 am)
Average temperature yesterday: 76 °F

High & Low Weather Summary for the Past Weeks

 TemperatureHumidityPressure
High108 °F (Apr 14, 4:00 pm)88% (Apr 19, 5:00 am)29.92 "Hg (Apr 19, 5:00 am)
Low66 °F (Apr 23, 7:00 am)9% (Apr 12, 2:00 pm)29.71 "Hg (Apr 13, 5:00 pm)
Average82 °F52%29.81 "Hg
* Reported Apr 9 12:00 pm — Apr 24 12:00 pm, Banjul, Weather by CustomWeather, © 2017

Note: Actual official high and low records may vary slightly from our data, if they occured in-between our weather recording intervals... More about our weather records

Advertising

Banjul Weather History for the Previous 24 Hours

Scroll right to see more
 ConditionsComfort  
Time TempWeatherWind HumidityBarometerVisibility
12:00 pm
Mon, Apr 24
86 °FSunny.6 mph40%29.92 "Hg10 mi
11:00 am81 °FSunny.8 mph51%29.92 "Hg10 mi
10:00 am75 °FSunny.9 mph65%29.92 "Hg10 mi
9:00 am75 °FSunny.8 mph61%29.92 "Hg10 mi
7:00 am68 °FSunny.6 mph73%29.89 "Hg10 mi
6:00 am66 °FClear.5 mph83%29.86 "Hg10 mi
5:00 am70 °FClear.7 mph69%29.83 "Hg10 mi
4:00 am70 °FClear.8 mph83%29.83 "Hg10 mi
3:00 am70 °FClear.8 mph83%29.83 "Hg10 mi
2:00 am70 °FClear.7 mph83%29.86 "Hg10 mi
1:00 am70 °FClear.12 mph78%29.86 "Hg10 mi
12:00 am72 °FClear.8 mph73%29.89 "Hg10 mi
11:00 pm
Sun, Apr 23
72 °FClear.5 mph73%29.89 "Hg10 mi
10:00 pm72 °FClear.9 mph73%29.86 "Hg10 mi
9:00 pm75 °FClear.12 mph61%29.83 "Hg10 mi
8:00 pm75 °FClear.13 mph65%29.83 "Hg10 mi
7:00 pm79 °FSunny.15 mph61%29.80 "Hg10 mi
6:00 pm82 °FWarm.14 mph55%29.77 "HgN/A
5:00 pm84 °FSunny.13 mph51%29.80 "Hg10 mi
4:00 pm86 °FSunny.14 mph49%29.80 "Hg10 mi
3:00 pm84 °FSunny.14 mph51%29.83 "Hg10 mi
2:00 pm88 °FSunny.14 mph43%29.83 "Hg10 mi
1:00 pm88 °FSunny.10 mph43%29.86 "Hg10 mi
Weather by CustomWeather, © 2017

See weather overviewHow to use our weather pages